Weather in Uspenka

Russia / Tyva Republic     51°14′05″N   94°14′50″E
temp.,
°C
wind,
m/s
gust,
m/s
humid.,
%
clouds,
%
prec.,
mm/h
press.,
hPa
HPBL,
m
26 february, fri
fri2601:00−12ese1194100 0.4 101621
04:00−11nnw2393100 0.1 101654
07:00−13nw3696100 1.3 1020235
10:00−14wnw4780100 0.3 1023546
13:00−13nw4865100 0.4 10261785
16:00−13n126883 0.0 1028551
19:00−20sse337843 0.1 103220
22:00−19s227490 0.0 103521
27 february, sat
sat2701:00−21wsw118095 0.0 103620
04:00−24wsw118291 0.0 103720
07:00−25wsw118396 0.0 103820
10:00−21nnw118298 0.0 1038106
13:00−19nne218799 0.0 1036289
16:00−19nne118794 0.0 1035245
19:00−23sw119594 0.0 103720
22:00−24wsw1190100 0.0 103920
28 february, sun
sun2801:00−23w0187100 0.0 104020
04:00−25ssw1188100 0.0 104220
07:00−26ese008697 0.0 104420
10:00−23nne1193100 0.0 104466
13:00−20n219686 0.0 1042220
16:00−19n219696 0.0 1040168
19:00−24ssw009672 0.0 104220
22:00−25sse00860 0.0 104320
1 march, mon
mon101:00−24ne118842 0.0 104120
04:00−24nne119299 0.0 104020
07:00−25nne1196100 0.0 103921
10:00−21nne1195100 0.0 1036106
13:00−19nne2295100 0.0 1033182
16:00−18n2295100 0.0 1030128
19:00−19nnw0193100 0.0 103021
22:00−19n0189100 0.0 103121
2 march, tue
tue201:00−19nnw1191100 0.0 102921
04:00−19nne1193100 0.0 102821
07:00−19nnw1197100 0.0 102721
10:00−16n2293100 0.0 1026112
13:00−14n2297100 0.0 1024155
16:00−13n2296100 0.0 1022115
19:00−14n1192100 0.0 102321
22:00−14ne0190100 0.0 102321